| time (UTC) | temp C | wind direction | speed KPH | gust KPH | rain 1hr cm | rain 24hr cm | rain mn cm | humidity % | barometer mb |
| 20260509220918 | 18 | 6 | 14.5 | 20.9 | 0.00 | 0.00 | 0.00 | 20 | 932.8 |
| 20260509220414 | 18 | 346 | 6.4 | 14.5 | 0.00 | 0.00 | 0.00 | 21 | 932.8 |
| 20260509215910 | 18 | 294 | 14.5 | 22.5 | 0.00 | 0.00 | 0.00 | 21 | 932.7 |
| 20260509215406 | 18 | 324 | 19.3 | 32.2 | 0.00 | 0.00 | 0.00 | 20 | 932.7 |
| 20260509214904 | 18 | 359 | 11.3 | 27.4 | 0.00 | 0.00 | 0.00 | 19 | 932.8 |
| 20260509214400 | 18 | 309 | 19.3 | 32.2 | 0.00 | 0.00 | 0.00 | 20 | 932.3 |
| 20260509213858 | 18 | 353 | 29.0 | 33.8 | 0.00 | 0.00 | 0.00 | 18 | 932.7 |
| 20260509213354 | 18 | 324 | 11.3 | 33.8 | 0.00 | 0.00 | 0.00 | 19 | 932.6 |
| 20260509212852 | 18 | 333 | 12.9 | 27.4 | 0.00 | 0.00 | 0.00 | 18 | 932.5 |
| 20260509212349 | 18 | 336 | 27.4 | 35.4 | 0.00 | 0.00 | 0.00 | 17 | 932.6 |
| 20260509211844 | 18 | 338 | 24.1 | 37.0 | 0.00 | 0.00 | 0.00 | 18 | 932.8 |
| 20260509211340 | 18 | 323 | 12.9 | 24.1 | 0.00 | 0.00 | 0.00 | 20 | 932.4 |
| 20260509210837 | 19 | 310 | 17.7 | 32.2 | 0.00 | 0.00 | 0.00 | 18 | 932.7 |
| 20260509210335 | 20 | 290 | 20.9 | 27.4 | 0.00 | 0.00 | 0.00 | 18 | 932.7 |
| 20260509205834 | 19 | 321 | 22.5 | 32.2 | 0.00 | 0.00 | 0.00 | 19 | 932.8 |
| 20260509205329 | 18 | 333 | 9.7 | 20.9 | 0.00 | 0.00 | 0.00 | 19 | 932.8 |
| 20260509204826 | 20 | 288 | 12.9 | 24.1 | 0.00 | 0.00 | 0.00 | 18 | 932.7 |
| 20260509204323 | 19 | 284 | 27.4 | 46.7 | 0.00 | 0.00 | 0.00 | 18 | 932.8 |
| 20260509203819 | 18 | 8 | 19.3 | 25.7 | 0.00 | 0.00 | 0.00 | 19 | 932.6 |
| 20260509203316 | 18 | 334 | 19.3 | 25.7 | 0.00 | 0.00 | 0.00 | 18 | 932.6 |
| 20260509202812 | 18 | 294 | 11.3 | 24.1 | 0.00 | 0.00 | 0.00 | 16 | 932.8 |
| 20260509202308 | 19 | 335 | 19.3 | 35.4 | 0.00 | 0.00 | 0.00 | 20 | 932.7 |
| 20260509201807 | 19 | 299 | 22.5 | 33.8 | 0.00 | 0.00 | 0.00 | 17 | 932.6 |
| 20260509201305 | 18 | 312 | 11.3 | 16.1 | 0.00 | 0.00 | 0.00 | 18 | 932.6 |
| 20260509200801 | 18 | 27 | 14.5 | 27.4 | 0.00 | 0.00 | 0.00 | 18 | 932.4 |
| 20260509200256 | 18 | 296 | 20.9 | 25.7 | 0.00 | 0.00 | 0.00 | 19 | 932.7 |
| 20260509195752 | 18 | 341 | 12.9 | 25.7 | 0.00 | 0.00 | 0.00 | 19 | 932.7 |
| 20260509195247 | 18 | 290 | 24.1 | 27.4 | 0.00 | 0.00 | 0.00 | 18 | 932.7 |
| 20260509194742 | 18 | 349 | 17.7 | 29.0 | 0.00 | 0.00 | 0.00 | 19 | 932.7 |
| 20260509194238 | 18 | 338 | 11.3 | 22.5 | 0.00 | 0.00 | 0.00 | 19 | 933.1 |
| 20260509193735 | 18 | 256 | 6.4 | 24.1 | 0.00 | 0.00 | 0.00 | 21 | 932.8 |
| 20260509193235 | 18 | 312 | 11.3 | 20.9 | 0.00 | 0.00 | 0.00 | 21 | 932.8 |
| 20260509192731 | 18 | 283 | 14.5 | 22.5 | 0.00 | 0.00 | 0.00 | 20 | 932.8 |
| 20260509192226 | 18 | 328 | 11.3 | 17.7 | 0.00 | 0.00 | 0.00 | 19 | 932.8 |
| 20260509191722 | 18 | 334 | 8.0 | 27.4 | 0.00 | 0.00 | 0.00 | 18 | 932.7 |
| 20260509191219 | 18 | 345 | 14.5 | 29.0 | 0.00 | 0.00 | 0.00 | 19 | 933.2 |
| 20260509190715 | 18 | 230 | 12.9 | 20.9 | 0.00 | 0.00 | 0.00 | 20 | 933.2 |
| 20260509190212 | 18 | 247 | 24.1 | 32.2 | 0.00 | 0.00 | 0.00 | 19 | 933.1 |
| 20260509185710 | 18 | 271 | 9.7 | 27.4 | 0.00 | 0.00 | 0.00 | 20 | 933.3 |
| 20260509185206 | 18 | 314 | 24.1 | 32.2 | 0.00 | 0.00 | 0.00 | 20 | 932.9 |
| 20260509184703 | 18 | 359 | 0.0 | 12.9 | 0.00 | 0.00 | 0.00 | 21 | 932.7 |
| 20260509184200 | 17 | 265 | 9.7 | 20.9 | 0.00 | 0.00 | 0.00 | 22 | 933.1 |
| 20260509183656 | 17 | 243 | 6.4 | 22.5 | 0.00 | 0.00 | 0.00 | 21 | 932.8 |
| 20260509183152 | 18 | 332 | 19.3 | 27.4 | 0.00 | 0.00 | 0.00 | 21 | 932.7 |
| 20260509182647 | 18 | 348 | 6.4 | 20.9 | 0.00 | 0.00 | 0.00 | 22 | 932.9 |
| 20260509182145 | 18 | 298 | 3.2 | 14.5 | 0.00 | 0.00 | 0.00 | 21 | 932.9 |
| 20260509181643 | 17 | 320 | 12.9 | 24.1 | 0.00 | 0.00 | 0.00 | 21 | 933.1 |
| 20260509181141 | 17 | 337 | 11.3 | 27.4 | 0.00 | 0.00 | 0.00 | 22 | 933.2 |
| 20260509180637 | 18 | 6 | 6.4 | 17.7 | 0.00 | 0.00 | 0.00 | 20 | 933.1 |
| 20260509180133 | 17 | 1 | 11.3 | 20.9 | 0.00 | 0.00 | 0.00 | 19 | 933.1 |
| 20260509175629 | 17 | 285 | 6.4 | 16.1 | 0.00 | 0.00 | 0.00 | 22 | 933.4 |
| 20260509175126 | 17 | 258 | 14.5 | 22.5 | 0.00 | 0.00 | 0.00 | 18 | 933.2 |
| 20260509174622 | 17 | 256 | 9.7 | 14.5 | 0.00 | 0.00 | 0.00 | 23 | 933.1 |
| 20260509174117 | 17 | 300 | 8.0 | 14.5 | 0.00 | 0.00 | 0.00 | 24 | 933.3 |
| 20260509173613 | 17 | 271 | 8.0 | 16.1 | 0.00 | 0.00 | 0.00 | 23 | 933.3 |
| 20260509173109 | 17 | 340 | 6.4 | 16.1 | 0.00 | 0.00 | 0.00 | 21 | 933.3 |
| 20260509172606 | 17 | 316 | 11.3 | 24.1 | 0.00 | 0.00 | 0.00 | 22 | 933.3 |
| 20260509172102 | 16 | 260 | 16.1 | 27.4 | 0.00 | 0.00 | 0.00 | 22 | 933.3 |
| 20260509171558 | 16 | 327 | 3.2 | 11.3 | 0.00 | 0.00 | 0.00 | 25 | 933.3 |
| 20260509171054 | 16 | 8 | 4.8 | 16.1 | 0.00 | 0.00 | 0.00 | 24 | 933.4 |
| 20260509170550 | 16 | 284 | 6.4 | 17.7 | 0.00 | 0.00 | 0.00 | 24 | 933.3 |
| 20260509170047 | 16 | 246 | 6.4 | 14.5 | 0.00 | 0.00 | 0.00 | 24 | 933.2 |
| 20260509165545 | 16 | 251 | 1.6 | 3.2 | 0.00 | 0.00 | 0.00 | 26 | 933.1 |
| 20260509165041 | 16 | 302 | 1.6 | 11.3 | 0.00 | 0.00 | 0.00 | 25 | 933.3 |
| 20260509164537 | 15 | 326 | 6.4 | 14.5 | 0.00 | 0.00 | 0.00 | 26 | 933.2 |
| 20260509164033 | 15 | 101 | 1.6 | 9.7 | 0.00 | 0.00 | 0.00 | 26 | 933.3 |
| 20260509163531 | 14 | 271 | 3.2 | 11.3 | 0.00 | 0.00 | 0.00 | 27 | 933.4 |
| 20260509163026 | 15 | 244 | 8.0 | 17.7 | 0.00 | 0.00 | 0.00 | 29 | 933.4 |
| 20260509162524 | 15 | 226 | 3.2 | 14.5 | 0.00 | 0.00 | 0.00 | 28 | 933.4 |
| 20260509162019 | 15 | 292 | 11.3 | 17.7 | 0.00 | 0.00 | 0.00 | 28 | 933.3 |
| 20260509161516 | 15 | 246 | 9.7 | 14.5 | 0.00 | 0.00 | 0.00 | 27 | 933.3 |
| 20260509161011 | 15 | 303 | 9.7 | 16.1 | 0.00 | 0.00 | 0.00 | 27 | 933.5 |
| 20260509160507 | 14 | 304 | 8.0 | 14.5 | 0.00 | 0.00 | 0.00 | 28 | 933.4 |
| 20260509160003 | 14 | 267 | 4.8 | 8.0 | 0.00 | 0.00 | 0.00 | 29 | 933.4 |
| 20260509155459 | 14 | 355 | 4.8 | 9.7 | 0.00 | 0.00 | 0.00 | 27 | 933.4 |
| 20260509154955 | 14 | 261 | 4.8 | 11.3 | 0.00 | 0.00 | 0.00 | 29 | 933.5 |
| 20260509154451 | 14 | 246 | 8.0 | 12.9 | 0.00 | 0.00 | 0.00 | 29 | 933.4 |
| 20260509153949 | 14 | 213 | 6.4 | 16.1 | 0.00 | 0.00 | 0.00 | 30 | 933.4 |
| 20260509153446 | 14 | 255 | 8.0 | 12.9 | 0.00 | 0.00 | 0.00 | 30 | 933.5 |
| 20260509152943 | 13 | 33 | 0.0 | 4.8 | 0.00 | 0.00 | 0.00 | 30 | 933.4 |
| 20260509152438 | 13 | 242 | 14.5 | 16.1 | 0.00 | 0.00 | 0.00 | 30 | 933.5 |
| 20260509151936 | 13 | 343 | 12.9 | 16.1 | 0.00 | 0.00 | 0.00 | 30 | 933.5 |
| 20260509151432 | 13 | 12 | 0.0 | 8.0 | 0.00 | 0.00 | 0.00 | 31 | 933.6 |
| 20260509150930 | 13 | 301 | 4.8 | 14.5 | 0.00 | 0.00 | 0.00 | 31 | 933.5 |
| 20260509150427 | 13 | 260 | 8.0 | 11.3 | 0.00 | 0.00 | 0.00 | 31 | 933.5 |
| 20260509145926 | 12 | 125 | 3.2 | 8.0 | 0.00 | 0.00 | 0.00 | 33 | 933.7 |
| 20260509145426 | 12 | 253 | 9.7 | 16.1 | 0.00 | 0.00 | 0.00 | 31 | 933.4 |
| 20260509144921 | 12 | 216 | 6.4 | 14.5 | 0.00 | 0.00 | 0.00 | 32 | 933.5 |
| 20260509144418 | 12 | 263 | 1.6 | 11.3 | 0.00 | 0.00 | 0.00 | 33 | 933.3 |
| 20260509143915 | 12 | 235 | 4.8 | 11.3 | 0.00 | 0.00 | 0.00 | 33 | 933.1 |
| 20260509143413 | 12 | 226 | 4.8 | 12.9 | 0.00 | 0.00 | 0.00 | 34 | 933.2 |
| 20260509142909 | 12 | 265 | 6.4 | 12.9 | 0.00 | 0.00 | 0.00 | 37 | 933.2 |
| 20260509142406 | 11 | 237 | 3.2 | 11.3 | 0.00 | 0.00 | 0.00 | 39 | 933.3 |
| 20260509141901 | 11 | 277 | 1.6 | 9.7 | 0.00 | 0.00 | 0.00 | 43 | 933.1 |
| 20260509141358 | 11 | 244 | 6.4 | 11.3 | 0.00 | 0.00 | 0.00 | 44 | 933.1 |
| 20260509140855 | 10 | 20 | 0.0 | 8.0 | 0.00 | 0.00 | 0.00 | 45 | 933.2 |
| 20260509140352 | 10 | 0 | 3.2 | 4.8 | 0.00 | 0.00 | 0.00 | 48 | 933.3 |
| 20260509135850 | 9 | 4 | 3.2 | 4.8 | 0.00 | 0.00 | 0.00 | 48 | 933.5 |
| 20260509135347 | 9 | 33 | 1.6 | 3.2 | 0.00 | 0.00 | 0.00 | 49 | 933.4 |
| 20260509134844 | 9 | 60 | 1.6 | 1.6 | 0.00 | 0.00 | 0.00 | 48 | 933.1 |
| 20260509134341 | 8 | 67 | 1.6 | 3.2 | 0.00 | 0.00 | 0.00 | 48 | 933.3 |
| 20260509133838 | 7 | 60 | 0.0 | 3.2 | 0.00 | 0.00 | 0.00 | 56 | 933.2 |
| 20260509133335 | 7 | 68 | 3.2 | 3.2 | 0.00 | 0.00 | 0.00 | 58 | 933.1 |
| 20260509132834 | 7 | 72 | 3.2 | 4.8 | 0.00 | 0.00 | 0.00 | 58 | 933.3 |
| 20260509132332 | 8 | 26 | 1.6 | 3.2 | 0.00 | 0.00 | 0.00 | 48 | 933.2 |
| 20260509131828 | 8 | 33 | 1.6 | 1.6 | 0.00 | 0.00 | 0.00 | 49 | 933.1 |
| 20260509131325 | 8 | 34 | 0.0 | 1.6 | 0.00 | 0.00 | 0.00 | 49 | 933.1 |
| 20260509130821 | 7 | 166 | 3.2 | 4.8 | 0.00 | 0.00 | 0.00 | 54 | 933.1 |
| 20260509130317 | 7 | 67 | 0.0 | 3.2 | 0.00 | 0.00 | 0.00 | 51 | 933.1 |
| 20260509125814 | 6 | 68 | 0.0 | 3.2 | 0.00 | 0.00 | 0.00 | 55 | 932.6 |
| 20260509125310 | 6 | 127 | 4.8 | 9.7 | 0.00 | 0.00 | 0.00 | 55 | 932.7 |
| 20260509124807 | 6 | 80 | 0.0 | 0.0 | 0.00 | 0.00 | 0.00 | 54 | 932.5 |
| 20260509124303 | 5 | 103 | 0.0 | 0.0 | 0.00 | 0.00 | 0.00 | 57 | 932.4 |
| 20260509123802 | 5 | 109 | 0.0 | 0.0 | 0.00 | 0.00 | 0.00 | 59 | 932.3 |
| 20260509123259 | 5 | 109 | 0.0 | 0.0 | 0.00 | 0.00 | 0.00 | 58 | 932.3 |
| 20260509122754 | 6 | 90 | 3.2 | 8.0 | 0.00 | 0.00 | 0.00 | 54 | 932.1 |
| 20260509122252 | 6 | 202 | 0.0 | 8.0 | 0.00 | 0.00 | 0.00 | 51 | 931.8 |
| 20260509121748 | 6 | 210 | 0.0 | 3.2 | 0.00 | 0.00 | 0.00 | 52 | 931.9 |
| 20260509121245 | 6 | 274 | 0.0 | 4.8 | 0.00 | 0.00 | 0.00 | 53 | 931.9 |
| 20260509120744 | 5 | 356 | 0.0 | 8.0 | 0.00 | 0.00 | 0.00 | 57 | 931.7 |
| 20260509120241 | 5 | 10 | 0.0 | 0.0 | 0.00 | 0.00 | 0.00 | 60 | 931.8 |
| 20260509115739 | 5 | 54 | 0.0 | 0.0 | 0.00 | 0.00 | 0.00 | 61 | 931.8 |
| 20260509115235 | 5 | 56 | 0.0 | 0.0 | 0.00 | 0.00 | 0.00 | 60 | 931.7 |
| 20260509114734 | 6 | 17 | 0.0 | 0.0 | 0.00 | 0.00 | 0.00 | 58 | 931.6 |
| 20260509114232 | 5 | 256 | 0.0 | 0.0 | 0.00 | 0.00 | 0.00 | 60 | 931.6 |
| 20260509113731 | 4 | 82 | 0.0 | 0.0 | 0.00 | 0.00 | 0.00 | 67 | 931.6 |
| 20260509113228 | 5 | 68 | 0.0 | 0.0 | 0.00 | 0.00 | 0.00 | 65 | 931.3 |
| 20260509112724 | 6 | 43 | 0.0 | 0.0 | 0.00 | 0.00 | 0.00 | 60 | 931.2 |
| 20260509112222 | 6 | 342 | 0.0 | 9.7 | 0.00 | 0.00 | 0.00 | 61 | 931.5 |
| 20260509111718 | 5 | 321 | 1.6 | 8.0 | 0.00 | 0.00 | 0.00 | 64 | 931.5 |
| 20260509111215 | 5 | 299 | 0.0 | 4.8 | 0.00 | 0.00 | 0.00 | 65 | 931.6 |
| 20260509110713 | 5 | 315 | 0.0 | 0.0 | 0.00 | 0.00 | 0.00 | 65 | 931.7 |
| 20260509110209 | 5 | 246 | 0.0 | 1.6 | 0.00 | 0.00 | 0.00 | 65 | 931.3 |
| 20260509105708 | 5 | 43 | 0.0 | 0.0 | 0.00 | 0.00 | 0.00 | 69 | 931.6 |
| 20260509105204 | 4 | 80 | 0.0 | 3.2 | 0.00 | 0.00 | 0.00 | 69 | 931.2 |
| 20260509104702 | 4 | 78 | 0.0 | 0.0 | 0.00 | 0.00 | 0.00 | 69 | 931.5 |
| 20260509104158 | 5 | 74 | 0.0 | 0.0 | 0.00 | 0.00 | 0.00 | 69 | 931.3 |
| 20260509103656 | 5 | 53 | 0.0 | 0.0 | 0.00 | 0.00 | 0.00 | 68 | 931.2 |
| 20260509103154 | 5 | 214 | 1.6 | 8.0 | 0.00 | 0.00 | 0.00 | 68 | 931.3 |
| 20260509102652 | 4 | 3 | 0.0 | 0.0 | 0.00 | 0.00 | 0.00 | 73 | 931.5 |
| 20260509102148 | 4 | 25 | 0.0 | 0.0 | 0.00 | 0.00 | 0.00 | 73 | 931.2 |
| 20260509101644 | 4 | 24 | 0.0 | 3.2 | 0.00 | 0.00 | 0.00 | 74 | 931.2 |
| 20260509101141 | 4 | 17 | 3.2 | 3.2 | 0.00 | 0.00 | 0.00 | 74 | 931.3 |
| 20260509100639 | 3 | 13 | 0.0 | 8.0 | 0.00 | 0.00 | 0.00 | 76 | 931.2 |
| 20260509100136 | 3 | 19 | 0.0 | 0.0 | 0.00 | 0.00 | 0.00 | 79 | 931.1 |
| 20260509095632 | 2 | 48 | 1.6 | 4.8 | 0.00 | 0.00 | 0.00 | 79 | 931.2 |
| 20260509095130 | 3 | 49 | 0.0 | 1.6 | 0.00 | 0.00 | 0.00 | 77 | 931.0 |
| 20260509094626 | 3 | 75 | 0.0 | 0.0 | 0.00 | 0.00 | 0.00 | 77 | 931.2 |
| 20260509094123 | 3 | 76 | 0.0 | 0.0 | 0.00 | 0.00 | 0.00 | 76 | 931.6 |
| 20260509093622 | 3 | 89 | 0.0 | 0.0 | 0.00 | 0.00 | 0.00 | 75 | 931.3 |
| 20260509093118 | 3 | 123 | 0.0 | 0.0 | 0.00 | 0.00 | 0.00 | 75 | 931.1 |
| 20260509092616 | 3 | 149 | 0.0 | 0.0 | 0.00 | 0.00 | 0.00 | 76 | 931.1 |
| 20260509092115 | 3 | 88 | 0.0 | 0.0 | 0.00 | 0.00 | 0.00 | 76 | 931.2 |
| 20260509091612 | 4 | 39 | 4.8 | 4.8 | 0.00 | 0.00 | 0.00 | 75 | 931.1 |
| 20260509091108 | 4 | 36 | 0.0 | 0.0 | 0.00 | 0.00 | 0.00 | 75 | 931.1 |
| 20260509090605 | 4 | 90 | 0.0 | 0.0 | 0.00 | 0.00 | 0.00 | 74 | 931.1 |
| 20260509090057 | 4 | 154 | 6.4 | 11.3 | 0.00 | 0.00 | 0.00 | 74 | 931.2 |
| 20260509085554 | 5 | 152 | 1.6 | 4.8 | 0.00 | 0.00 | 0.00 | 72 | 931.3 |
| 20260509085050 | 5 | 110 | 0.0 | 0.0 | 0.00 | 0.00 | 0.00 | 73 | 931.1 |
| 20260509084547 | 4 | 106 | 3.2 | 9.7 | 0.00 | 0.00 | 0.00 | 74 | 931.3 |
| 20260509084045 | 5 | 120 | 0.0 | 8.0 | 0.00 | 0.00 | 0.00 | 74 | 931.3 |
| 20260509083542 | 5 | 151 | 6.4 | 12.9 | 0.00 | 0.00 | 0.00 | 73 | 931.1 |
| 20260509083038 | 5 | 130 | 0.0 | 4.8 | 0.00 | 0.00 | 0.00 | 72 | 931.2 |
| 20260509082536 | 5 | 137 | 4.8 | 8.0 | 0.00 | 0.00 | 0.00 | 71 | 931.3 |
| 20260509082033 | 5 | 131 | 0.0 | 8.0 | 0.00 | 0.00 | 0.00 | 71 | 931.1 |
| 20260509081530 | 5 | 99 | 0.0 | 0.0 | 0.00 | 0.00 | 0.00 | 70 | 931.2 |
| 20260509081027 | 5 | 46 | 0.0 | 8.0 | 0.00 | 0.00 | 0.00 | 69 | 931.2 |
| 20260509080525 | 6 | 127 | 0.0 | 0.0 | 0.00 | 0.00 | 0.00 | 69 | 931.2 |
| 20260509080023 | 5 | 106 | 0.0 | 0.0 | 0.00 | 0.00 | 0.00 | 69 | 931.2 |
| 20260509075520 | 6 | 89 | 0.0 | 0.0 | 0.00 | 0.00 | 0.00 | 69 | 931.1 |
| 20260509075018 | 6 | 127 | 0.0 | 0.0 | 0.00 | 0.00 | 0.00 | 69 | 931.1 |
| 20260509074515 | 6 | 136 | 0.0 | 0.0 | 0.00 | 0.00 | 0.00 | 69 | 931.2 |
| 20260509074011 | 6 | 108 | 0.0 | 0.0 | 0.00 | 0.00 | 0.00 | 69 | 931.2 |
| 20260509073508 | 5 | 132 | 4.8 | 8.0 | 0.00 | 0.00 | 0.00 | 70 | 931.0 |
| 20260509073004 | 5 | 87 | 0.0 | 0.0 | 0.00 | 0.00 | 0.00 | 70 | 931.1 |
| 20260509072501 | 6 | 136 | 3.2 | 4.8 | 0.00 | 0.00 | 0.00 | 70 | 931.1 |
| 20260509071957 | 6 | 124 | 1.6 | 4.8 | 0.00 | 0.00 | 0.00 | 68 | 931.1 |
| 20260509071454 | 6 | 113 | 0.0 | 0.0 | 0.00 | 0.00 | 0.00 | 67 | 931.0 |
| 20260509070952 | 6 | 110 | 0.0 | 0.0 | 0.00 | 0.00 | 0.00 | 67 | 931.5 |
| 20260509070449 | 6 | 76 | 0.0 | 0.0 | 0.00 | 0.00 | 0.00 | 68 | 931.2 |
| 20260509065944 | 6 | 93 | 0.0 | 4.8 | 0.00 | 0.00 | 0.00 | 67 | 931.0 |
| 20260509065440 | 6 | 66 | 1.6 | 4.8 | 0.00 | 0.00 | 0.00 | 68 | 931.3 |
| 20260509064936 | 6 | 51 | 0.0 | 0.0 | 0.00 | 0.00 | 0.00 | 67 | 931.1 |
| 20260509064434 | 6 | 96 | 0.0 | 4.8 | 0.00 | 0.00 | 0.00 | 67 | 930.9 |
| 20260509063932 | 7 | 93 | 0.0 | 0.0 | 0.00 | 0.00 | 0.00 | 66 | 930.9 |
| 20260509063427 | 7 | 56 | 1.6 | 1.6 | 0.00 | 0.00 | 0.00 | 65 | 931.0 |
| 20260509062924 | 7 | 87 | 0.0 | 0.0 | 0.00 | 0.00 | 0.00 | 62 | 930.9 |
| 20260509062422 | 7 | 104 | 0.0 | 0.0 | 0.00 | 0.00 | 0.00 | 63 | 931.0 |
| 20260509061919 | 7 | 124 | 0.0 | 0.0 | 0.00 | 0.00 | 0.00 | 63 | 931.1 |
| 20260509061417 | 7 | 129 | 0.0 | 0.0 | 0.00 | 0.00 | 0.00 | 63 | 931.0 |
| 20260509060913 | 7 | 122 | 3.2 | 3.2 | 0.00 | 0.00 | 0.00 | 63 | 930.7 |
| 20260509060411 | 8 | 106 | 0.0 | 4.8 | 0.00 | 0.00 | 0.00 | 63 | 931.1 |
| 20260509055906 | 7 | 133 | 3.2 | 8.0 | 0.00 | 0.00 | 0.00 | 62 | 930.9 |
| 20260509055401 | 7 | 100 | 4.8 | 8.0 | 0.00 | 0.00 | 0.00 | 63 | 931.0 |
| 20260509054858 | 8 | 122 | 3.2 | 4.8 | 0.00 | 0.00 | 0.00 | 62 | 930.9 |
| 20260509054355 | 8 | 51 | 0.0 | 0.0 | 0.00 | 0.00 | 0.00 | 64 | 930.9 |
| 20260509053853 | 8 | 79 | 0.0 | 0.0 | 0.00 | 0.00 | 0.00 | 60 | 930.9 |
| 20260509053350 | 8 | 82 | 0.0 | 0.0 | 0.00 | 0.00 | 0.00 | 59 | 931.0 |
| 20260509052849 | 8 | 114 | 0.0 | 0.0 | 0.00 | 0.00 | 0.00 | 60 | 931.1 |
| 20260509052346 | 8 | 120 | 0.0 | 0.0 | 0.00 | 0.00 | 0.00 | 61 | 931.0 |
| 20260509051843 | 8 | 98 | 0.0 | 0.0 | 0.00 | 0.00 | 0.00 | 62 | 931.0 |
| 20260509051341 | 9 | 80 | 0.0 | 0.0 | 0.00 | 0.00 | 0.00 | 59 | 931.0 |
| 20260509050838 | 9 | 77 | 0.0 | 0.0 | 0.00 | 0.00 | 0.00 | 59 | 931.1 |
| 20260509050335 | 8 | 91 | 0.0 | 0.0 | 0.00 | 0.00 | 0.00 | 60 | 931.1 |
| 20260509045831 | 8 | 90 | 0.0 | 0.0 | 0.00 | 0.00 | 0.00 | 61 | 930.9 |
| 20260509045328 | 10 | 90 | 0.0 | 0.0 | 0.00 | 0.00 | 0.00 | 58 | 930.9 |
| 20260509044826 | 10 | 72 | 0.0 | 0.0 | 0.00 | 0.00 | 0.00 | 57 | 930.9 |
| 20260509044323 | 9 | 63 | 0.0 | 0.0 | 0.00 | 0.00 | 0.00 | 61 | 930.9 |
| 20260509043819 | 8 | 71 | 0.0 | 0.0 | 0.00 | 0.00 | 0.00 | 62 | 931.0 |
| 20260509043316 | 8 | 48 | 0.0 | 0.0 | 0.00 | 0.00 | 0.00 | 61 | 930.8 |
| 20260509042811 | 10 | 56 | 0.0 | 0.0 | 0.00 | 0.00 | 0.00 | 55 | 930.9 |
| 20260509042308 | 11 | 55 | 0.0 | 0.0 | 0.00 | 0.00 | 0.00 | 53 | 930.8 |
| 20260509041804 | 11 | 55 | 0.0 | 0.0 | 0.00 | 0.00 | 0.00 | 54 | 931.0 |
| 20260509041302 | 10 | 48 | 0.0 | 0.0 | 0.00 | 0.00 | 0.00 | 54 | 930.8 |
| 20260509040800 | 10 | 52 | 0.0 | 0.0 | 0.00 | 0.00 | 0.00 | 54 | 930.9 |
| 20260509040257 | 10 | 52 | 0.0 | 0.0 | 0.00 | 0.00 | 0.00 | 55 | 930.8 |
| 20260509035754 | 11 | 51 | 0.0 | 0.0 | 0.00 | 0.00 | 0.00 | 54 | 930.7 |
| 20260509035251 | 11 | 49 | 0.0 | 0.0 | 0.00 | 0.00 | 0.00 | 53 | 930.5 |
| 20260509034747 | 11 | 50 | 0.0 | 0.0 | 0.00 | 0.00 | 0.00 | 53 | 930.5 |
| 20260509034245 | 12 | 35 | 0.0 | 0.0 | 0.00 | 0.00 | 0.00 | 51 | 930.3 |
| 20260509033742 | 12 | 31 | 0.0 | 0.0 | 0.00 | 0.00 | 0.00 | 49 | 930.4 |
| 20260509033239 | 12 | 39 | 0.0 | 1.6 | 0.00 | 0.00 | 0.00 | 46 | 930.4 |
| 20260509032736 | 12 | 42 | 0.0 | 0.0 | 0.00 | 0.00 | 0.00 | 47 | 930.3 |
| 20260509032233 | 13 | 42 | 0.0 | 0.0 | 0.00 | 0.00 | 0.00 | 46 | 930.3 |
| 20260509031731 | 13 | 41 | 0.0 | 0.0 | 0.00 | 0.00 | 0.00 | 44 | 930.1 |
| 20260509031228 | 13 | 325 | 0.0 | 8.0 | 0.00 | 0.00 | 0.00 | 44 | 930.1 |
| 20260509030726 | 13 | 350 | 0.0 | 0.0 | 0.00 | 0.00 | 0.00 | 45 | 930.2 |
| 20260509030223 | 13 | 247 | 0.0 | 1.6 | 0.00 | 0.00 | 0.00 | 44 | 930.0 |
| 20260509025720 | 14 | 44 | 0.0 | 0.0 | 0.00 | 0.00 | 0.00 | 43 | 930.0 |
| 20260509025216 | 15 | 20 | 0.0 | 0.0 | 0.00 | 0.00 | 0.00 | 42 | 929.9 |
| 20260509024711 | 15 | 346 | 0.0 | 0.0 | 0.00 | 0.00 | 0.00 | 41 | 929.9 |
| 20260509024207 | 15 | 15 | 0.0 | 0.0 | 0.00 | 0.00 | 0.00 | 41 | 929.6 |
| 20260509023705 | 15 | 29 | 0.0 | 0.0 | 0.00 | 0.00 | 0.00 | 40 | 929.9 |
| 20260509023202 | 16 | 23 | 0.0 | 0.0 | 0.00 | 0.00 | 0.00 | 39 | 930.0 |
| 20260509022657 | 16 | 10 | 0.0 | 0.0 | 0.00 | 0.00 | 0.00 | 38 | 930.0 |
| 20260509022156 | 16 | 263 | 4.8 | 4.8 | 0.00 | 0.00 | 0.00 | 37 | 930.0 |
| 20260509021652 | 16 | 337 | 0.0 | 0.0 | 0.00 | 0.00 | 0.00 | 36 | 929.9 |
| 20260509021149 | 17 | 1 | 3.2 | 4.8 | 0.00 | 0.00 | 0.00 | 35 | 930.0 |
| 20260509020648 | 17 | 302 | 0.0 | 1.6 | 0.00 | 0.00 | 0.00 | 35 | 929.9 |
| 20260509020144 | 17 | 3 | 0.0 | 3.2 | 0.00 | 0.00 | 0.00 | 36 | 929.7 |
| 20260509015643 | 17 | 330 | 0.0 | 8.0 | 0.00 | 0.00 | 0.00 | 34 | 930.0 |
| 20260509015140 | 17 | 308 | 8.0 | 12.9 | 0.00 | 0.00 | 0.00 | 34 | 929.7 |
| 20260509014637 | 18 | 297 | 1.6 | 11.3 | 0.00 | 0.00 | 0.00 | 33 | 929.5 |
| 20260509014133 | 18 | 355 | 4.8 | 12.9 | 0.00 | 0.00 | 0.00 | 32 | 929.9 |
| 20260509013630 | 18 | 329 | 1.6 | 14.5 | 0.00 | 0.00 | 0.00 | 32 | 930.0 |
| 20260509013126 | 18 | 308 | 4.8 | 12.9 | 0.00 | 0.00 | 0.00 | 31 | 930.1 |
| 20260509012623 | 18 | 351 | 0.0 | 11.3 | 0.00 | 0.00 | 0.00 | 31 | 930.1 |
| 20260509012119 | 18 | 324 | 6.4 | 12.9 | 0.00 | 0.00 | 0.00 | 31 | 930.2 |
| 20260509011618 | 18 | 305 | 14.5 | 20.9 | 0.00 | 0.00 | 0.00 | 30 | 930.2 |
| 20260509011114 | 19 | 314 | 9.7 | 12.9 | 0.00 | 0.00 | 0.00 | 30 | 930.3 |
| 20260509010612 | 19 | 326 | 6.4 | 16.1 | 0.00 | 0.00 | 0.00 | 30 | 930.3 |
| 20260509010108 | 19 | 335 | 8.0 | 20.9 | 0.00 | 0.00 | 0.00 | 30 | 930.5 |
| 20260509005606 | 20 | 310 | 11.3 | 17.7 | 0.00 | 0.00 | 0.00 | 30 | 930.3 |
| 20260509005101 | 20 | 41 | 0.0 | 3.2 | 0.00 | 0.00 | 0.00 | 31 | 930.4 |
| 20260509004558 | 18 | 12 | 0.0 | 12.9 | 0.00 | 0.00 | 0.00 | 31 | 930.2 |
| 20260509004055 | 19 | 318 | 1.6 | 12.9 | 0.00 | 0.00 | 0.00 | 31 | 930.2 |
| 20260509003554 | 19 | 0 | 0.0 | 12.9 | 0.00 | 0.00 | 0.00 | 32 | 930.3 |
| 20260509003051 | 20 | 293 | 6.4 | 14.5 | 0.00 | 0.00 | 0.00 | 31 | 930.4 |
| 20260509002548 | 19 | 343 | 8.0 | 9.7 | 0.00 | 0.00 | 0.00 | 31 | 930.1 |
| 20260509002045 | 19 | 302 | 6.4 | 29.0 | 0.00 | 0.00 | 0.00 | 31 | 930.3 |
| 20260509001542 | 20 | 312 | 14.5 | 25.7 | 0.00 | 0.00 | 0.00 | 30 | 930.9 |
| 20260509001038 | 19 | 299 | 4.8 | 16.1 | 0.00 | 0.00 | 0.00 | 31 | 930.9 |
| 20260509000537 | 19 | 333 | 16.1 | 25.7 | 0.00 | 0.00 | 0.00 | 31 | 930.5 |
| 20260509000033 | 19 | 6 | 17.7 | 20.9 | 0.00 | 0.00 | 0.00 | 31 | 930.8 |
| 20260508235531 | 19 | 337 | 11.3 | 17.7 | 0.00 | 0.00 | 0.00 | 31 | 930.5 |
| 20260508235026 | 18 | 355 | 11.3 | 20.9 | 0.00 | 0.00 | 0.00 | 33 | 930.5 |
| 20260508234524 | 19 | 299 | 6.4 | 16.1 | 0.00 | 0.00 | 0.00 | 31 | 930.4 |
| 20260508234021 | 19 | 302 | 3.2 | 22.5 | 0.00 | 0.00 | 0.00 | 32 | 930.7 |
| 20260508233520 | 18 | 357 | 14.5 | 22.5 | 0.00 | 0.00 | 0.00 | 32 | 930.3 |
| 20260508233017 | 19 | 271 | 8.0 | 12.9 | 0.00 | 0.00 | 0.00 | 31 | 930.4 |
| 20260508232514 | 20 | 238 | 6.4 | 11.3 | 0.00 | 0.00 | 0.00 | 30 | 930.4 |
| 20260508232011 | 20 | 328 | 17.7 | 22.5 | 0.00 | 0.00 | 0.00 | 30 | 930.4 |
| 20260508231508 | 20 | 224 | 1.6 | 20.9 | 0.00 | 0.00 | 0.00 | 30 | 930.4 |
| 20260508231005 | 20 | 275 | 8.0 | 32.2 | 0.00 | 0.00 | 0.00 | 30 | 930.3 |
| 20260508230502 | 20 | 255 | 8.0 | 14.5 | 0.00 | 0.00 | 0.00 | 30 | 930.5 |
| 20260508225958 | 20 | 301 | 4.8 | 16.1 | 0.00 | 0.00 | 0.00 | 30 | 930.3 |
| 20260508225456 | 20 | 230 | 16.1 | 22.5 | 0.00 | 0.00 | 0.00 | 29 | 930.4 |
| 20260508224953 | 20 | 293 | 6.4 | 27.4 | 0.00 | 0.00 | 0.00 | 29 | 930.2 |
| 20260508224450 | 20 | 326 | 9.7 | 16.1 | 0.00 | 0.00 | 0.00 | 29 | 930.2 |
| 20260508223947 | 20 | 282 | 9.7 | 32.2 | 0.00 | 0.00 | 0.00 | 30 | 930.3 |
| 20260508223445 | 20 | 356 | 12.9 | 20.9 | 0.00 | 0.00 | 0.00 | 28 | 930.3 |
| 20260508222942 | 20 | 337 | 9.7 | 27.4 | 0.00 | 0.00 | 0.00 | 29 | 930.4 |
| 20260508222440 | 20 | 301 | 9.7 | 33.8 | 0.00 | 0.00 | 0.00 | 30 | 930.1 |
| 20260508221936 | 20 | 242 | 11.3 | 24.1 | 0.00 | 0.00 | 0.00 | 28 | 930.2 |
| 20260508221432 | 20 | 288 | 9.7 | 17.7 | 0.00 | 0.00 | 0.00 | 29 | 930.4 |